Tracking 20621 objects as of 31-Mar-2020
HD Live streaming from Space Station
objects crossing your sky now

OPS 0054 (DMSP 5A F1)

Track OPS 0054 (DMSP 5A F1) now!
10-day predictions
OPS 0054 (DMSP 5A F1) is classified as:


NORAD ID: 4331
Int'l Code: 1970-012A
Perigee: 747.0 km
Apogee: 832.4 km
Inclination: 98.8 °
Period: 100.5 minutes
Semi major axis: 7160 km
RCS: 0.986 m2 (medium)
Launch date: February 11, 1970
Source: United States (US)
Launch site: AIR FORCE WESTERN TEST RANGE (AFWTR)
aabbcc
Your satellite tracking list
Your tracking list is empty




NASA's NSSDC Master Catalog

Two Line Element Set (TLE):
1  4331U 70012A   20090.76504759 +.00000011 +00000-0 +20365-4 0  9997
2  4331 098.8358 175.7942 0059680 135.4314 225.1691 14.32749959612062
Source of the keplerian elements: AFSPC